Location: Enguinehaut
(50.5699°N, 1.7902°E)
Time: 03:27:31
(UTC+00:00)

Daily predictions for brighter satellites

Satellite Brightness Start Highest point End
(mag) Time Altitude Azimuth Time Altitude Azimuth Time Altitude Azimuth
Resurs 1-4 Rocket 4.4 01:50:04 10° NNE 01:51:36 20° NNE 01:51:36 20° NNE
ATLAS 3B R/B 4.2 01:56:43 26° N 01:57:54 27° N 02:03:33 10° ENE
CENTAUR R/B 4.2 02:10:13 25° NNW 02:13:27 35° NNE 02:20:54 10° E
SL-16 R/B 3.6 02:16:16 34° ENE 02:16:16 34° ENE 02:19:43 10° NE
CZ-2D R/B 4.2 02:14:53 10° N 02:16:30 20° N 02:16:30 20° N
ADEOS II 3.5 02:25:58 10° NNE 02:28:59 34° NNE 02:28:59 34° NNE
Cosmos 2322 Rocket 2.8 02:48:50 53° NE 02:48:50 53° NE 02:53:10 10° NNE
USA 267 3.2 02:49:51 10° ENE 02:56:26 77° SE 02:56:29 77° SSE
ARIANE 5 R/B 3.7 02:52:22 10° NNE 02:55:13 35° N 02:55:13 35° N
Exosat Rocket 4.4 02:57:25 71° WNW 02:57:34 71° WNW 03:04:07 10° NNE
Cosmos 2360 Rocket 2.8 02:59:56 49° ESE 03:00:09 50° ESE 03:05:36 10° NE
Cosmos 1980 Rocket 3.5 03:07:30 28° NNW 03:07:30 28° NNW 03:11:07 10° NNE
IDEFIX/ARIANE 42P 3.9 03:05:01 10° NNE 03:09:54 37° E 03:12:52 21° SSE
Nadezhda 1 Rocket 3.9 03:03:45 10° N 03:10:11 89° W 03:10:45 76° S
Cosmos 1975 Rocket 4.0 03:14:24 48° ENE 03:14:24 48° ENE 03:18:02 10° NNE
Cosmos 1745 Rocket 3.9 03:14:22 64° SSE 03:15:22 81° E 03:21:38 10° NNE
USA 229 DEB 4.3 03:16:50 39° NW 03:17:34 41° NNW 03:24:12 10° NE
USA 229 4.3 03:16:57 40° NW 03:17:39 41° NNW 03:24:17 10° NE
Cosmos 1844 Rocket 3.1 03:20:51 50° SSE 03:20:51 50° SSE 03:24:54 10° SSE
NOSS 3-1 (A) 3.9 03:21:26 47° NW 03:21:40 48° NNW 03:28:19 10° NE
Lacrosse 4 Rocket 3.3 03:27:39 22° N 03:27:39 22° N 03:29:31 10° NNE
NOSS 2-3 (D) 4.5 03:26:55 48° NNW 03:26:55 48° NNW 03:31:53 10° NE
USA 234 3.4 03:25:57 10° SSE 03:31:51 50° SSW 03:31:51 50° SSW
Cosmos 2333 Rocket 3.7 03:28:22 11° SSE 03:33:13 33° ESE 03:38:14 10° NE
Cosmos 2278 Rocket 3.5 03:28:01 10° NNW 03:33:22 39° NE 03:38:40 10° ESE
Resurs 1-4 Rocket 4.1 03:31:00 10° NNW 03:32:40 16° NNW 03:32:40 16° NNW
Cosmos 1992 Rocket 4.1 03:29:30 10° NNW 03:34:45 72° ENE 03:39:56 10° SSE
Cosmos 1844 3.6 03:33:25 25° NNW 03:36:58 81° WSW 03:42:45 10° SSE
Cosmos 2251 Rocket 4.1 03:37:18 28° S 03:39:57 55° ESE 03:45:13 10° NNE
NOSS 3-1 (C) 4.4 03:39:36 32° NW 03:40:58 35° NNW 03:47:21 10° NE
Okean 2 3.7 03:41:22 63° ESE 03:41:32 64° E 03:45:38 10° NNE
H-2A R/B 3.6 03:40:58 10° NNE 03:44:50 41° E 03:47:59 15° SSE
Cosmos 2098 Rocket 4.3 03:40:56 30° SSW 03:44:59 78° W 03:52:29 10° N
BREEZE-M DEB (TANK) 4.2 03:50:38 24° S 03:50:38 24° S 03:52:11 10° SSE
PSLV R/B 3.7 03:44:36 10° NNE 03:48:54 71° ESE 03:49:53 50° SSE
Cosmos 1386 Rocket 4.4 03:47:05 43° SW 03:49:12 68° WNW 03:55:37 10° N
ATLAS 3B R/B 3.3 03:43:59 12° NW 03:50:05 51° NE 03:56:41 10° ESE
Cosmos 1455 Rocket 4.5 03:48:34 10° NNW 03:50:35 26° NNW 03:50:35 26° NNW
TIMED 4.4 03:52:40 75° SSW 03:53:02 89° ESE 03:57:27 10° NNE
Cosmos 1269 Rocket 4.5 03:55:06 42° NW 03:55:06 42° NW 04:00:03 10° NNE
Cosmos 1544 Rocket 3.3 03:51:39 10° NNW 04:01:30 - S 03:55:57 76° W
Cosmos 1025 Rocket 4.3 03:53:03 10° SSE 03:57:02 40° E 04:01:02 10° NNE
Cosmos 405 4.1 03:59:50 34° N 03:59:50 34° N 04:01:58 10° N
SL-16 R/B 2.8 03:58:09 36° WNW 03:58:33 37° NW 04:03:48 10° NNE
Cosmos 2322 3.7 03:56:17 31° SSW 03:59:08 81° ESE 04:04:54 10° NNE
CZ-2D R/B 4.2 03:56:55 10° NNW 03:57:48 12° NNW 03:57:48 12° NNW
ADEOS 3.5 03:58:35 10° NNE 04:03:50 85° WNW 04:07:14 23° SSW
BREEZE-M DEB (TANK) 3.5 04:05:27 31° SE 04:05:27 31° SE 04:06:46 10° ESE
Cosmos 1536 Rocket 4.2 04:00:41 10° S 04:04:53 55° E 04:09:09 10° NNE
CENTAUR R/B 3.4 03:57:49 10° NW 04:05:32 68° NE 04:14:07 10° ESE
ATLAS 2AS CENTAUR R/B 4.2 03:59:16 10° S 04:06:36 42° ESE 04:14:00 10° NE
Cosmos 1378 3.3 04:05:27 35° S 04:06:56 74° E 04:10:42 10° NNE
Cosmos 921 Rocket 3.5 04:03:03 10° NNW 04:07:23 60° ENE 04:11:36 10° SSE
USA 238 DEB 3.7 04:01:41 14° NW 04:07:54 71° SW 04:15:15 10° SSE
USA 238 3.7 04:01:47 14° NW 04:08:00 72° SW 04:15:20 10° SSE
COSMOS 2455 2.8 04:05:49 28° SSW 04:09:09 86° ESE 04:15:14 10° NE
ADEOS II 3.4 04:06:23 10° N 04:09:55 23° NW 04:09:55 23° NW
Cosmos 2237 4.2 04:08:49 39° WSW 04:10:49 62° NW 04:16:33 10° NNE
Spot 2 3.9 04:09:45 10° N 04:13:46 58° WNW 04:14:13 54° WSW
Cosmos 2219 Rocket 2.6 04:08:48 11° SSW 04:14:10 63° ESE 04:19:42 10° NE
Meteor 1-31 Rocket 3.9 04:13:40 10° NNE 04:17:21 44° E 04:20:59 10° S
Cosmos 2237 Rocket 4.1 04:13:29 10° SSE 04:18:20 30° ESE 04:23:14 10° NE
Cosmos 292 Rocket 4.0 04:13:37 10° NNW 04:18:25 71° ENE 04:23:12 10° SSE
COSMOS 2428 2.9 04:18:14 10° SSW 04:23:53 74° ESE 04:29:33 10° NNE
Cosmos 44 3.4 04:20:22 14° NW 04:24:05 62° NE 04:28:21 10° SE
Gblst 52 Del rocket 4.1 04:22:38 32° W 04:25:16 80° N 04:31:07 10° E
Cosmos 1470 3.1 04:22:22 10° N 04:26:20 68° ENE 04:30:13 10° SSE
USA 32 4.2 04:22:38 10° S 04:27:51 76° E 04:33:07 10° N
Cosmos 2322 Rocket 3.3 04:30:40 24° WNW 04:32:10 27° NW 04:36:54 10° NNE
Cosmos 2184 Rocket 4.3 04:26:45 10° S 04:32:53 69° E 04:39:09 10° NNE
Cosmos 1842 3.1 04:30:18 13° SSW 04:33:45 69° WNW 04:37:43 10° N
Cosmos 1709 Rocket 4.1 04:28:08 10° SSW 04:34:13 53° WNW 04:40:26 10° N
Cosmos 1733 3.4 04:31:18 10° NNW 04:35:03 47° W 04:38:45 10° SSW
NOSS 3-2 (A) 4.0 04:27:59 10° NW 04:35:18 61° SW 04:43:28 10° SSE
ARIANE 5 R/B 4.2 04:32:55 10° NNW 04:35:32 15° NW 04:35:32 15° NW
Cosmos 1707 4.0 04:34:13 10° SSE 04:37:56 43° E 04:41:41 10° NNE
ATLAS 5 CENTAUR R/B 4.5 04:33:37 12° NW 04:38:03 47° NNE 04:55:21 10° ESE
USA 267 3.5 04:32:58 10° ENE 04:39:22 59° NNW 04:43:49 21° W
NOSS 2-2 (E) 3.3 04:40:35 22° SW 04:42:58 86° SE 04:47:25 10° NE
CZ-4B R/B 3.0 04:38:48 10° NNE 04:43:02 81° ESE 04:47:00 10° SSW
Cosmos 2360 Rocket 2.9 04:41:44 24° W 04:44:21 36° NW 04:49:35 10° NNE
COSMOS 2441 4.4 04:42:27 10° N 04:47:17 58° WNW 04:52:06 10° SSW
IDEFIX/ARIANE 42P 3.1 04:44:40 10° N 04:49:31 38° WNW 04:53:40 13° SW
Cosmos 1975 Rocket 4.4 04:51:35 20° WNW 04:51:53 20° WNW 04:55:14 10° NNW
Cosmos 1980 Rocket 4.3 04:49:53 10° NW 04:52:00 12° NNW 04:54:07 10° N
Aureole 1 Rocket 3.7 04:47:22 10° SW 04:53:59 66° WNW 04:59:01 10° NNE
Cosmos 389 Rocket 3.2 04:50:42 10° S 04:54:03 54° E 04:57:26 10° NNE
ERBS 4.4 04:51:31 10° S 04:54:21 25° SE 04:57:11 10° ENE
BREEZE-M R/B 4.4 04:51:10 19° WSW 04:55:09 79° SSE 05:06:45 10° E
NOSS 3-2 (C) 4.1 04:49:12 10° NW 04:56:34 65° SW 05:04:48 10° SSE
MSX 4.0 04:51:14 10° N 04:56:47 52° WNW 05:02:18 10° SW
COSMO-SKYMED 1 2.5 04:56:37 10° SSE 05:00:58 89° W 05:05:20 10° NNW
NOSS 8 (F) 4.3 04:59:18 22° WSW 05:01:04 54° NW 05:04:14 10° NE
Meteor 1-16 Rocket 4.4 04:55:48 10° N 05:01:07 69° ENE 05:06:25 10° SSE
Helios 1A Rocket 4.4 04:57:36 10° NNE 05:01:34 42° E 05:05:31 10° S
Cosmos 1844 Rocket 4.1 05:02:44 16° WSW 05:02:44 16° WSW 05:05:40 10° SW
CZ-2C R/B 2.6 04:59:47 10° N 05:04:53 58° WNW 05:09:57 10° SSW
COBE Rocket 3.9 05:00:24 10° S 05:05:25 82° WSW 05:10:35 10° NNW
Lacrosse 4 Rocket 3.7 05:05:10 10° NNW 05:05:40 10° NNW 05:06:11 10° NNW
SL-16 R/B 4.4 05:03:44 10° SSE 05:08:31 29° ESE 05:13:20 10° NE
Okean O Rocket 2.9 05:05:02 10° NNE 05:09:18 45° E 05:13:30 10° S
Cosmos 2074 Rocket 4.0 05:03:22 10° SSW 05:09:34 67° WNW 05:15:48 10° N
Cosmos 2297 4.2 05:07:45 10° NNW 05:13:32 67° ENE 05:19:14 10° SE
Meteor 1-21 4.4 05:08:13 10° SSW 05:13:38 50° WNW 05:19:08 10° N
PAYLOAD A 4.3 05:09:23 10° N 05:13:49 39° WNW 05:18:20 10° SW
Cosmos 1953 2.3 05:11:04 10° NNW 05:15:04 59° W 05:19:01 10° S
USA 116 3.6 05:11:30 10° SSE 05:15:29 88° E 05:19:02 10° NNW
NOSS 3-4 (A) 4.0 05:10:30 10° SSW 05:16:25 61° SE 05:22:45 10° NE
NOSS 3-4 (C) 4.0 05:10:35 10° SSW 05:16:31 61° SE 05:22:51 10° NE
PSLV R/B 3.6 05:13:07 10° N 05:16:53 72° WNW 05:20:34 10° SSW
Cosmos 2333 Rocket 2.4 05:11:46 10° SW 05:17:17 51° NW 05:22:52 10° NNE
Cosmos 2278 Rocket 2.5 05:12:09 10° NW 05:17:33 45° WSW 05:22:54 10° S
Cosmos 1726 Rocket 3.5 05:13:32 10° NNW 05:17:53 83° W 05:22:11 10° S
H-2A R/B 3.6 05:16:52 10° N 05:20:09 24° WNW 05:23:31 10° WSW
Cosmos 1758 4.0 05:16:38 10° NNW 05:20:10 31° W 05:23:43 10° SSW
Cosmos 1140 Rocket 4.0 05:15:07 10° S 05:20:15 65° ESE 05:25:23 10° NNE
NOSS 2-2 (D) 3.4 05:16:48 10° WSW 05:20:30 59° NW 05:24:54 10° NE
Cosmos 1943 Rocket 3.8 05:16:24 10° NNW 05:21:30 33° NE 05:26:35 10° ESE
SJ-12 4.1 05:17:37 10° NNE 05:21:44 79° ESE 05:25:49 10° S
Cosmos 2251 Rocket 4.5 05:17:54 10° WSW 05:22:34 29° NW 05:27:17 10° N
FENGYUN 3A 4.4 05:17:19 10° NNE 05:22:43 59° E 05:28:04 10° S
Cosmos 1437 Rocket 4.3 05:19:58 10° SSE 05:23:30 39° E 05:27:04 10° NNE
Cosmos 1726 2.3 05:22:24 10° N 05:26:04 75° E 05:29:43 10° SSE
Cosmos 2058 Rocket 3.2 05:21:55 10° N 05:26:20 82° E 05:30:45 10° SSE
CZ-4B R/B 4.4 05:23:44 10° N 05:27:14 34° WNW 05:30:52 10° SW
Cosmos 1356 3.3 05:26:22 10° NNW 05:29:49 77° WSW 05:33:16 10° S
NOSS 0 Rocket 3.9 05:24:27 10° SW 05:30:37 77° WNW 05:36:52 10° NNE
Cosmos 614 Rocket 4.0 05:26:46 10° SSW 05:32:00 75° WNW 05:37:15 10° NNE
Cosmos 2228 3.1 05:28:59 10° NNW 05:33:11 55° W 05:37:20 10° S
Cosmos 1025 Rocket 4.1 05:31:19 10° WSW 05:34:48 24° WNW 05:38:17 10° NNW
RESURS DK-1 4.4 05:32:17 10° S 05:36:01 33° ESE 05:39:45 10° NE
ATLAS 3B R/B 2.9 05:34:24 10° NW 05:40:50 51° WSW 05:47:23 10° SSE
ALOS 2.3 05:37:15 10° NNE 05:41:58 89° ESE 05:46:38 10° SSW
SL-16 R/B 4.1 05:41:53 10° NW 05:44:27 13° NNW 05:47:01 10° N
METEOR-M 4.2 05:39:39 10° NNE 05:45:03 89° WNW 05:50:24 10° SSW
Cosmos 921 Rocket 4.5 05:42:23 10° NW 05:45:11 17° W 05:47:56 10° SW
